Regional Weather Roundup
Issued by NWS

Home | Current Version | Previous Version | Text Only | Print | Product List | Glossary On
Versions: 1 2 3 4 5 6 7 8 9 10 11 12 13 14 15 16 17 18 19 20 21 22 23 24 25 26 27 28 29 30 31 32 33 34 35 36 37 38 39 40 41 42 43 44 45 46 47 48 49 50
000
ASUS44 KLIX 241912
RWRLA
LOUISIANA WEATHER ROUNDUP
NATIONAL WEATHER SERVICE NEW ORLEANS LA
100 PM CST FRI FEB 24 2017

NOTE: "FAIR" INDICATES FEW OR NO CLOUDS BELOW 12,000 FEET WITH NO
      SIGNIFICANT WEATHER AND/OR OBSTRUCTIONS TO VISIBILITY.
      SKY/WX - SKY CONDITION AND SIGNIFICANT WEATHER.
      TMP - AIR TEMPERATURE.    DP   - DEWPOINT TEMPERATURE.
      RH  - RELATIVE HUMIDITY.  PRES - PRESSURE.
      HX  - HEAT INDEX.         WCI  - WIND CHILL INDEX.

*  THESE STATIONS ARE NOT NWS OR FAA STATIONS AND ARE NOT UNDER
   NWS QUALITY CONTROL.

LAZ040-048-061>063-065-066-069-242000-
SOUTHEAST LOUISIANA

CITY           SKY/WX    TMP DP  RH WIND       PRES   REMARKS
N.O. AUDUBON   NOT AVBL
N.O. INTL ARPT PTSUNNY   75  61  61 S12       29.82F
N.O. LAKEFRONT PTSUNNY   76  62  62 S15       29.82F
N.O. DOWNTOWN*   N/A     76  61  59 SW9G21    29.83F
RESERVE*       MOCLDY    80  62  54 SW9G16    29.82F
SLIDELL        CLOUDY    76  62  62 S12       29.81F
BATON ROUGE    PTSUNNY   80  60  50 S13       29.79F
BOOTHVILLE     CLOUDY    73  67  81 SW9       29.85F
BELLE CHASSE   PTSUNNY   75  63  66 S13       29.82F
BOGALUSA*      MOCLDY    78  59  51 SW14      29.84F
GALLIANO*      CLOUDY    75  61  62 S12G17    29.83F
NEW ROADS*     FAIR      77  59  53 S13G18    29.78F
GONZALES*      MOCLDY    76  59  55 SW9       29.81F
HAMMOND*       PTSUNNY   79  57  47 S13G18    29.82F
HOUMA*         PTSUNNY   79  64  61 S14       29.82
PORT FOURCHON* CLOUDY    73  63  68 S12       29.83F

$$

LAZ041-044-053-054-242000-
SOUTHWEST LOUISIANA

CITY           SKY/WX    TMP DP  RH WIND       PRES   REMARKS
LAKE CHARLES   MOSUNNY   75  62  64 SW16G23   29.78F
LAFAYETTE      SUNNY     78  61  55 S12G21    29.79F
PATTERSON      PTSUNNY   76  64  66 S14       29.82F
SALT POINT       N/A     74  65  73 VRB6      29.81F
NEW IBERIA     MOSUNNY   78  62  57 S12G20    29.82F
CHENAULT AIRPK PTSUNNY   75  61  60 S13G18    29.76F

$$

LAZ027-028-242000-
CENTRAL LOUISIANA

CITY           SKY/WX    TMP DP  RH WIND       PRES   REMARKS
FORT POLK      MOSUNNY   77  60  54 S14       29.75F
ALEXANDRIA INT SUNNY     77  60  55 S9        29.73F
ALEXANDRIA     MOSUNNY   79  59  50 SW15G22   29.75F

$$

LAZ001-002-242000-
NORTHWEST LOUISIANA

CITY           SKY/WX    TMP DP  RH WIND       PRES   REMARKS
SHREVEPORT     MOSUNNY   79  58  48 W15G21    29.72F
BARKSDALE AFB  MOSUNNY   77  59  53 NW14G23   29.72F
DTN SHREVEPORT MOSUNNY   77  58  51 W13G18    29.73F

$$

LAZ014-016-242000-
NORTHEAST LOUISIANA

CITY           SKY/WX    TMP DP  RH WIND       PRES   REMARKS
MONROE         MOSUNNY   78  58  49 SW15      29.73F
TALLULAH       SUNNY     76  56  49 SW12G26   29.74F

$$




USA.gov is the U.S. government's official web portal to all federal, state and local government web resources and services.